User: anonymous   Login
Location: Unspecified
(0.0000°N, 0.0000°E)
Time: 06:44:02
(UTC+00:00)
Language:

COMPASS 1 - Orbit

View from above orbital plane
View from above orbital plane
View from above satellite
View from above satellite

Ground track
Ground track

The orbit data is extracted from the following two-line orbital elements,

1 32787U 08021E   17087.63302668 +.00001092 +00000-0 +11149-3 0  9996
2 32787 097.5691 123.9202 0013798 052.5576 307.6896 14.92486787483430
Epoch (UTC): 28 March 2017 15:11:33
Eccentricity: 0.0013798
inclination: 97.5691°
perigee height: 580 km
apogee height: 600 km
right ascension of ascending node: 123.9202°
argument of perigee: 52.5576°
revolutions per day: 14.92486787
mean anomaly at epoch: 307.6896°
orbit number at epoch: 48343

The dashed part of the orbit path shows where the satellite is in the earth's shadow,  

DLR